GW4902 Weather Reports


time (UTC)temp
F
wind
direction
speed
knots
gust
knots
rain 1hr
in
rain 24hr
in
rain mn
in
humidity
%
barometer
mb
20260504050540 51 344 6.1 13.0 0.00 0.00 0.00 43 1015.1
20260504045542 52 355 7.0 14.8 0.00 0.00 0.00 42 1015.0
20260504045039 52 348 7.0 14.8 0.00 0.00 0.00 42 1014.9
20260504044559 52 341 8.7 17.4 0.00 0.00 0.00 42 1014.9
20260504044041 52 325 12.2 17.4 0.00 0.00 0.00 41 1014.9
20260504043540 52 336 9.6 18.2 0.00 0.00 0.00 42 1014.7
20260504043047 52 341 8.7 18.2 0.00 0.00 0.00 42 1014.4
20260504042539 52 309 8.7 16.5 0.00 0.00 0.00 42 1014.4
20260504042039 53 338 8.7 16.5 0.00 0.00 0.00 42 1014.4
20260504041554 53 343 8.7 17.4 0.00 0.00 0.00 41 1014.4
20260504041039 53 348 8.7 17.4 0.00 0.00 0.00 40 1014.2
20260504040541 53 328 10.4 17.4 0.00 0.00 0.00 40 1013.9
20260504040059 53 346 10.4 16.5 0.00 0.00 0.00 41 1013.9
20260504035539 53 31 10.4 17.4 0.00 0.00 0.00 39 1013.7
20260504035039 53 14 7.8 17.4 0.00 0.00 0.00 39 1013.6
20260504034553 53 355 7.0 16.5 0.00 0.00 0.00 37 1013.5
20260504034040 53 15 9.6 16.5 0.00 0.00 0.00 37 1013.4
20260504033540 53 27 8.7 17.4 0.00 0.00 0.00 37 1013.3
20260504033056 54 17 7.0 17.4 0.00 0.00 0.00 36 1013.2
20260504032540 54 15 7.8 13.9 0.00 0.00 0.00 36 1013.2
20260504032040 54 20 7.0 14.8 0.00 0.00 0.00 36 1013.1
20260504031550 54 42 8.7 19.1 0.00 0.00 0.00 36 1012.9
20260504031039 54 355 9.6 19.1 0.00 0.00 0.00 35 1012.8
20260504030542 55 15 9.6 15.6 0.00 0.00 0.00 35 1012.7
20260504030047 55 9 7.0 14.8 0.00 0.00 0.00 35 1012.7
20260504025539 55 22 7.0 14.8 0.00 0.00 0.00 35 1012.4
20260504025040 55 39 8.7 14.8 0.00 0.00 0.00 35 1012.3
20260504024550 56 16 7.0 14.8 0.00 0.00 0.00 34 1012.0
20260504024040 56 13 7.8 19.1 0.00 0.00 0.00 34 1011.9
20260504023540 56 25 8.7 19.1 0.00 0.00 0.00 34 1011.8
20260504023049 56 32 7.8 19.1 0.00 0.00 0.00 34 1011.7
20260504022540 57 23 4.3 11.3 0.00 0.00 0.00 35 1011.7
20260504022039 57 26 5.2 11.3 0.00 0.00 0.00 35 1011.6
20260504021547 57 24 5.2 12.2 0.00 0.00 0.00 34 1011.5
20260504021041 57 30 4.3 13.9 0.00 0.00 0.00 34 1011.4
20260504020541 57 26 8.7 16.5 0.00 0.00 0.00 34 1011.3
20260504020049 58 24 8.7 16.5 0.00 0.00 0.00 34 1011.2
20260504015539 58 17 10.4 16.5 0.00 0.00 0.00 33 1011.1
20260504015042 58 19 8.7 18.2 0.00 0.00 0.00 33 1011.0
20260504014552 58 28 9.6 19.1 0.00 0.00 0.00 33 1011.0
20260504014039 58 46 13.0 19.1 0.00 0.00 0.00 33 1011.0
20260504013539 59 31 10.4 18.2 0.00 0.00 0.00 33 1010.7
20260504013051 59 46 11.3 19.1 0.00 0.00 0.00 32 1010.6
20260504012542 60 30 11.3 20.9 0.00 0.00 0.00 32 1010.6
20260504012039 61 36 9.6 20.9 0.00 0.00 0.00 31 1010.6
20260504011550 62 39 8.7 15.6 0.00 0.00 0.00 31 1010.5
20260504011038 62 5 8.7 19.1 0.00 0.00 0.00 31 1010.3
20260504010539 62 15 7.8 23.5 0.00 0.00 0.00 32 1010.2
20260504010055 62 9 12.2 23.5 0.00 0.00 0.00 31 1010.1
20260504005540 63 360 8.7 15.6 0.00 0.00 0.00 31 1010.0
20260504005040 63 30 9.6 20.0 0.00 0.00 0.00 31 1010.0
20260504004550 63 18 9.6 20.0 0.00 0.00 0.00 31 1009.9
20260504004040 63 321 10.4 20.0 0.00 0.00 0.00 30 1009.9
20260504003543 64 329 12.2 20.0 0.00 0.00 0.00 31 1009.9
20260504003051 64 27 10.4 20.0 0.00 0.00 0.00 31 1009.7
20260504002539 64 352 7.0 17.4 0.00 0.00 0.00 30 1009.6
20260504002039 65 37 8.7 17.4 0.00 0.00 0.00 30 1009.6
20260504001607 65 352 10.4 17.4 0.00 0.00 0.00 30 1009.5
20260504001039 65 37 8.7 16.5 0.00 0.00 0.00 30 1009.5
20260504000540 65 350 10.4 20.0 0.00 0.00 0.00 29 1009.5
20260504000053 65 352 9.6 20.0 0.00 0.00 0.00 30 1009.5
20260503235540 65 319 8.7 18.2 0.00 0.00 0.00 30 1009.3
20260503235040 65 345 10.4 18.2 0.00 0.00 0.00 29 1009.4
20260503234547 65 349 7.8 20.0 0.00 0.00 0.00 30 1009.4
20260503234040 65 339 11.3 20.0 0.00 0.00 0.00 30 1009.4
20260503233540 65 44 8.7 20.0 0.00 0.00 0.00 30 1009.3
20260503233053 65 345 12.2 18.2 0.00 0.00 0.00 30 1009.4
20260503232542 65 5 9.6 15.6 0.00 0.00 0.00 30 1009.3
20260503232040 65 16 9.6 18.2 0.00 0.00 0.00 29 1009.3
20260503231557 65 5 9.6 18.2 0.00 0.00 0.00 29 1009.3
20260503231040 65 5 11.3 18.2 0.00 0.00 0.00 29 1009.3
20260503230541 65 342 9.6 15.6 0.00 0.00 0.00 29 1009.3
20260503230048 66 10 9.6 15.6 0.00 0.00 0.00 30 1009.4
20260503225540 66 11 9.6 13.9 0.00 0.00 0.00 29 1009.4
20260503225040 66 15 7.8 14.8 0.00 0.00 0.00 29 1009.4
20260503224551 66 306 7.8 19.1 0.00 0.00 0.00 29 1009.3
20260503224039 66 352 6.1 19.1 0.00 0.00 0.00 30 1009.5
20260503223542 66 58 10.4 19.1 0.00 0.00 0.00 29 1009.3
20260503223049 66 5 10.4 17.4 0.00 0.00 0.00 30 1009.4
20260503222539 66 16 9.6 17.4 0.00 0.00 0.00 28 1009.3
20260503222039 67 344 7.0 18.2 0.00 0.00 0.00 31 1009.3
20260503221551 67 352 9.6 18.2 0.00 0.00 0.00 29 1009.3
20260503221043 68 44 10.4 17.4 0.00 0.00 0.00 27 1009.2
20260503220540 68 9 8.7 19.1 0.00 0.00 0.00 28 1009.2
20260503220109 68 40 10.4 19.1 0.00 0.00 0.00 28 1009.3
20260503215539 69 50 9.6 17.4 0.00 0.00 0.00 26 1009.2
20260503215039 69 49 7.8 15.6 0.00 0.00 0.00 27 1009.2
20260503214548 69 37 6.1 14.8 0.00 0.00 0.00 27 1009.1
20260503214041 69 5 6.1 16.5 0.00 0.00 0.00 25 1009.2
20260503213539 69 318 7.8 16.5 0.00 0.00 0.00 24 1009.2
20260503213054 70 311 5.2 13.0 0.00 0.00 0.00 25 1009.2
20260503212539 69 350 5.2 13.9 0.00 0.00 0.00 25 1009.2
20260503212041 69 311 6.1 13.9 0.00 0.00 0.00 25 1009.2
20260503211605 70 10 4.3 12.2 0.00 0.00 0.00 27 1009.2
20260503211042 69 343 5.2 13.0 0.00 0.00 0.00 26 1009.3
20260503210539 69 360 7.8 16.5 0.00 0.00 0.00 27 1009.4
20260503210055 69 10 8.7 16.5 0.00 0.00 0.00 25 1009.5
20260503205539 69 5 7.0 13.9 0.00 0.00 0.00 27 1009.5
20260503205040 69 320 4.3 13.9 0.00 0.00 0.00 27 1009.5
20260503204556 68 305 7.8 13.9 0.00 0.00 0.00 26 1009.6
20260503204038 68 32 7.0 13.9 0.00 0.00 0.00 27 1009.5
20260503203539 68 350 7.0 13.9 0.00 0.00 0.00 26 1009.6
20260503203055 68 323 7.0 13.9 0.00 0.00 0.00 26 1009.7
20260503202539 68 20 6.1 14.8 0.00 0.00 0.00 26 1009.8
20260503202039 68 18 7.0 14.8 0.00 0.00 0.00 28 1009.9
20260503201552 68 349 6.1 14.8 0.00 0.00 0.00 27 1009.9
20260503201038 67 346 7.0 13.9 0.00 0.00 0.00 27 1010.0
20260503200542 67 360 6.1 12.2 0.00 0.00 0.00 26 1010.2
20260503200055 68 340 5.2 12.2 0.00 0.00 0.00 26 1010.1
20260503195539 67 352 7.0 12.2 0.00 0.00 0.00 27 1010.1
20260503195038 67 337 7.0 12.2 0.00 0.00 0.00 26 1010.0
20260503194555 67 315 6.1 10.4 0.00 0.00 0.00 27 1010.2
20260503194040 67 346 6.1 14.8 0.00 0.00 0.00 27 1010.2
20260503193540 67 346 7.8 14.8 0.00 0.00 0.00 28 1010.2
20260503193053 67 26 3.5 13.0 0.00 0.00 0.00 29 1010.2
20260503192539 67 352 4.3 13.0 0.00 0.00 0.00 28 1010.3
20260503192041 66 17 5.2 12.2 0.00 0.00 0.00 28 1010.4
20260503191557 66 56 6.1 13.0 0.00 0.00 0.00 28 1010.4
20260503191040 66 15 7.0 14.8 0.00 0.00 0.00 29 1010.7
20260503190538 66 352 7.8 14.8 0.00 0.00 0.00 27 1010.7
20260503190052 66 332 7.8 12.2 0.00 0.00 0.00 27 1010.8
20260503185539 66 318 7.0 12.2 0.00 0.00 0.00 27 1010.9
20260503185042 66 41 6.1 13.0 0.00 0.00 0.00 28 1010.8
20260503184554 66 342 5.2 13.0 0.00 0.00 0.00 28 1010.8
20260503184040 66 265 6.1 12.2 0.00 0.00 0.00 25 1010.9
20260503183538 67 309 5.2 12.2 0.00 0.00 0.00 26 1011.0
20260503183101 66 277 4.3 13.9 0.00 0.00 0.00 27 1011.0
20260503182539 66 298 5.2 15.6 0.00 0.00 0.00 27 1011.1
20260503182043 66 320 9.6 15.6 0.00 0.00 0.00 25 1011.2
20260503181618 66 336 4.3 11.3 0.00 0.00 0.00 26 1011.2
20260503181040 65 360 5.2 13.9 0.00 0.00 0.00 27 1011.3
20260503180540 65 320 7.0 13.9 0.00 0.00 0.00 27 1011.4
20260503180113 65 342 5.2 13.9 0.00 0.00 0.00 30 1011.5
20260503175539 65 360 5.2 13.9 0.00 0.00 0.00 29 1011.4
20260503175040 65 311 7.0 13.9 0.00 0.00 0.00 28 1011.6
20260503174556 64 346 7.8 13.0 0.00 0.00 0.00 27 1011.6
20260503174039 64 333 7.0 13.9 0.00 0.00 0.00 27 1011.6
20260503173539 64 21 8.7 15.6 0.00 0.00 0.00 27 1011.7
20260503173057 65 5 8.7 16.5 0.00 0.00 0.00 27 1011.8
20260503172539 64 33 8.7 16.5 0.00 0.00 0.00 29 1011.9
20260503172038 64 352 7.8 15.6 0.00 0.00 0.00 27 1012.0
20260503171553 64 350 7.8 18.2 0.00 0.00 0.00 26 1011.9
20260503171039 65 338 11.3 18.2 0.00 0.00 0.00 26 1012.0
20260503170540 65 350 7.0 16.5 0.00 0.00 0.00 25 1011.9
20260503150538 57 296 2.6 7.8 0.00 0.00 0.00 35 1012.4
20260503131039 48 263 0.9 5.2 0.00 0.00 0.00 41 1012.6
20260503130539 48 263 1.7 5.2 0.00 0.00 0.00 41 1012.7
20260503120106 47 266 1.7 6.1 0.00 0.00 0.00 38 1012.9
20260503110542 45 0 0.0 1.7 0.00 0.00 0.00 40 1013.2
20260503100106 49 342 0.0 2.6 0.00 0.00 0.00 35 1013.3
20260503081550 52 322 1.7 4.3 0.00 0.00 0.00 29 1013.1
20260503081036 52 323 0.9 6.1 0.00 0.00 0.00 29 1013.1
20260503080544 52 265 1.7 6.1 0.00 0.00 0.00 29 1013.0
20260503072542 53 300 2.6 7.0 0.00 0.00 0.00 29 1013.1
20260503072039 53 282 2.6 7.0 0.00 0.00 0.00 29 1013.1
20260503071552 52 277 2.6 7.8 0.00 0.00 0.00 29 1013.0
20260503071043 52 241 1.7 7.8 0.00 0.00 0.00 29 1013.1
20260503070539 53 282 2.6 7.8 0.00 0.00 0.00 29 1013.0
20260503060113 48 0 0.0 1.7 0.00 0.00 0.00 38 1013.1
20260503055039 49 0 0.0 1.7 0.00 0.00 0.00 38 1012.9
20260503054547 50 186 0.0 1.7 0.00 0.00 0.00 36 1012.8
20260503054040 50 0 0.0 2.6 0.00 0.00 0.00 35 1012.8
20260503053539 50 0 0.0 3.5 0.00 0.00 0.00 35 1012.8
20260503053053 50 186 0.0 3.5 0.00 0.00 0.00 35 1012.8
20260503052540 51 186 1.7 3.5 0.00 0.00 0.00 35 1012.8